TimeEDT,TemperatureF,Dew PointF,Humidity,Sea Level PressureIn,VisibilityMPH,Wind Direction,Wind SpeedMPH,Gust SpeedMPH,PrecipitationIn,Events,Conditions,WindDirDegrees,DateUTC
12:54 AM,55.9,53.1,90,29.98,7.0,Calm,Calm,-,0.01,Rain,Light Rain,0,2013-05-09 04:54:00
1:54 AM,55.9,54.0,93,29.96,8.0,ESE,3.5,-,0.04,,Overcast,110,2013-05-09 05:54:00
2:54 AM,55.9,54.0,93,29.94,6.0,Calm,Calm,-,0.00,,Overcast,0,2013-05-09 06:54:00
3:54 AM,55.9,54.0,93,29.93,5.0,North,3.5,-,0.00,Rain,Light Rain,10,2013-05-09 07:54:00
4:54 AM,55.9,54.0,93,29.93,3.0,Calm,Calm,-,0.03,Rain,Rain,0,2013-05-09 08:54:00
4:59 AM,55.4,53.6,94,29.93,2.0,Calm,Calm,-,0.02,Rain,Heavy Rain,0,2013-05-09 08:59:00
5:07 AM,55.4,53.6,94,29.93,1.5,Calm,Calm,-,0.07,Rain,Heavy Rain,0,2013-05-09 09:07:00
5:14 AM,55.4,53.6,94,29.93,1.0,Calm,Calm,-,0.15,Rain,Heavy Rain,0,2013-05-09 09:14:00
5:24 AM,55.4,53.6,94,29.92,1.2,NE,3.5,-,0.27,Rain,Heavy Rain,40,2013-05-09 09:24:00
5:49 AM,55.4,53.6,94,29.93,2.5,Calm,Calm,-,0.36,Rain,Rain,0,2013-05-09 09:49:00
5:54 AM,55.0,54.0,96,29.93,3.0,Calm,Calm,-,0.37,Rain,Rain,0,2013-05-09 09:54:00
6:09 AM,55.4,53.6,94,29.93,2.5,ENE,3.5,-,0.06,Rain,Heavy Rain,70,2013-05-09 10:09:00
6:24 AM,55.4,55.4,100,29.93,3.0,Calm,Calm,-,0.10,Rain,Rain,0,2013-05-09 10:24:00
6:36 AM,55.4,55.4,100,29.93,2.5,NNE,4.6,-,0.12,Rain,Rain,30,2013-05-09 10:36:00
6:47 AM,55.4,55.4,100,29.93,3.0,Calm,Calm,-,0.13,Rain,Light Rain,0,2013-05-09 10:47:00
6:54 AM,55.9,55.0,97,29.94,4.0,Calm,Calm,-,0.13,Rain,Light Rain,0,2013-05-09 10:54:00
7:09 AM,55.4,55.4,100,29.94,7.0,Calm,Calm,-,0.00,Rain,Light Rain,0,2013-05-09 11:09:00
7:54 AM,57.0,55.0,93,29.94,9.0,Calm,Calm,-,0.01,,Overcast,0,2013-05-09 11:54:00
8:47 AM,57.2,55.4,94,29.95,10.0,Calm,Calm,-,N/A,,Overcast,0,2013-05-09 12:47:00
8:54 AM,57.9,55.0,90,29.96,10.0,Calm,Calm,-,N/A,,Overcast,0,2013-05-09 12:54:00
9:14 AM,60.8,55.4,82,29.95,10.0,Calm,Calm,-,N/A,,Scattered Clouds,0,2013-05-09 13:14:00
9:35 AM,60.8,55.4,82,29.95,10.0,Calm,Calm,-,N/A,,Mostly Cloudy,0,2013-05-09 13:35:00
10:54 AM,64.0,54.0,70,29.95,10.0,WSW,5.8,-,N/A,,Scattered Clouds,250,2013-05-09 14:54:00
11:01 AM,64.4,53.6,68,29.95,10.0,West,6.9,-,N/A,,Mostly Cloudy,270,2013-05-09 15:01:00
11:47 AM,66.2,53.6,64,29.95,10.0,Variable,5.8,-,N/A,,Mostly Cloudy,0,2013-05-09 15:47:00
11:54 AM,66.0,54.0,65,29.95,10.0,West,6.9,-,N/A,,Mostly Cloudy,260,2013-05-09 15:54:00
1:54 PM,66.9,53.1,61,29.93,10.0,WSW,4.6,-,N/A,,Overcast,250,2013-05-09 17:54:00
2:54 PM,66.0,54.0,65,29.93,10.0,Calm,Calm,-,N/A,,Overcast,0,2013-05-09 18:54:00
3:54 PM,70.0,55.9,61,29.92,10.0,NE,3.5,-,N/A,,Mostly Cloudy,40,2013-05-09 19:54:00
4:54 PM,70.0,52.0,53,29.91,10.0,Variable,4.6,-,N/A,,Mostly Cloudy,0,2013-05-09 20:54:00
5:54 PM,70.0,52.0,53,29.91,10.0,WSW,6.9,-,N/A,,Overcast,250,2013-05-09 21:54:00
6:54 PM,68.0,54.0,61,29.92,10.0,Calm,Calm,-,N/A,,Mostly Cloudy,0,2013-05-09 22:54:00
7:54 PM,69.1,53.1,57,29.94,10.0,West,4.6,-,N/A,,Overcast,260,2013-05-09 23:54:00
8:54 PM,66.0,55.0,68,29.95,10.0,Calm,Calm,-,N/A,,Overcast,0,2013-05-10 00:54:00
9:54 PM,62.1,55.9,80,29.96,10.0,Calm,Calm,-,N/A,,Clear,0,2013-05-10 01:54:00
10:54 PM,62.1,57.0,84,29.97,10.0,Calm,Calm,-,N/A,,Mostly Cloudy,0,2013-05-10 02:54:00
11:54 PM,60.1,55.9,86,29.97,10.0,Calm,Calm,-,N/A,,Partly Cloudy,0,2013-05-10 03:54:00